Home > Weather > Banja Luka > Past weeks

Flag for Bosnia-Herzegovina Weather for the Past 2 Weeks in Banja Luka, Bosnia-Herzegovina

Now
63 °F

Scattered clouds.


Feels Like: 63 °F
Forecast: 34 / 54 °F
Wind: 9 mph from West

Location: Banja Luka

Current Time: Feb 9, 2016 at 3:31:35 PM

Latest Report: Feb 9, 2016 at 2:30 PM


Visibility: N/A

Pressure: 29.86 "Hg

Humidity: 42%

Dew point: 39 °F

Location of Banja LukaLocation

Historic Weather in Banja Luka — Graph

°F

Banja Luka Temperature Yesterday

Maximum temperature yesterday: 64 °F (at 12:30 PM)
Minimum temperature yesterday: 41 °F (at 4:00 AM)
Average temperature yesterday: 53 °F

High & Low Weather Summary for the Past Weeks

 TemperatureHumidityPressure
High64 °F (Jan 28, 1:00 PM)100% (Jan 27, 3:00 AM)30.45 "Hg (Jan 27, 3:00 AM)
Low28 °F (Feb 6, 7:30 AM)36% (Feb 6, 2:00 PM)29.86 "Hg (Feb 3, 4:30 PM)
Average45 °F76%30.20 "Hg
* Reported Jan 25 2:00 PM — Feb 9 2:00 PM, Banja Luka, Weather by CustomWeather, © 2016

Note: Actual official high and low records may vary slightly from our data, if they occured in-between our weather recording intervals... More about our weather records

Advertising

Banja Luka Weather History for the Previous 24 Hours

 ConditionsComfort  
Time TempWeatherWind HumidityBarometerVisibility
2:00 PM
Tue, Feb 9
63 °FPassing clouds.12 mph42%29.86 "HgN/A
1:30 PM64 °FPassing clouds.10 mph40%29.89 "HgN/A
1:00 PM63 °FPassing clouds.10 mph42%29.89 "HgN/A
12:30 PM63 °FPassing clouds.12 mph42%29.92 "HgN/A
11:30 AM63 °FPassing clouds.12 mph42%29.95 "HgN/A
11:00 AM63 °FPassing clouds.12 mph42%29.98 "HgN/A
10:30 AM61 °FSunny.12 mph45%29.98 "Hg10 mi
10:00 AM61 °FSunny.9 mph45%29.98 "Hg10 mi
9:00 AM54 °FSunny.6 mph63%29.98 "Hg10 mi
8:30 AM48 °FSunny.5 mph76%29.98 "Hg10 mi
8:00 AM43 °FSunny.6 mph81%29.98 "Hg10 mi
7:00 AM41 °FClear.7 mph87%29.98 "Hg10 mi
6:30 AM43 °FClear.7 mph87%29.95 "Hg10 mi
6:00 AM43 °FClear.2 mph87%29.95 "Hg10 mi
5:30 AM41 °FClear.5 mph87%29.95 "Hg10 mi
5:00 AM41 °FClear.5 mph87%29.92 "Hg10 mi
4:00 AM45 °FClear.2 mph81%29.92 "Hg10 mi
3:30 AM43 °FClear.5 mph87%29.92 "Hg10 mi
3:00 AM45 °FClear.2 mph81%29.92 "Hg10 mi
2:30 AM48 °FClear.2 mph76%29.95 "Hg10 mi
2:00 AM48 °FClear.7 mph76%29.95 "Hg10 mi
1:30 AM52 °FClear.7 mph67%29.95 "Hg10 mi
1:00 AM52 °FClear.5 mph67%29.95 "Hg10 mi
12:30 AM52 °FClear.5 mph67%29.95 "Hg10 mi
12:00 AM52 °FClear.7 mph67%29.95 "Hg10 mi
11:00 PM
Mon, Feb 8
50 °FClear.7 mph71%29.98 "Hg10 mi
10:30 PM48 °FClear.5 mph71%29.98 "Hg10 mi
10:00 PM48 °FClear.2 mph71%29.98 "Hg10 mi
9:30 PM50 °FClear.2 mph67%29.95 "Hg10 mi
9:00 PM50 °FClear.7 mph67%29.95 "Hg10 mi
8:30 PM54 °FClear.7 mph58%29.98 "Hg10 mi
8:00 PM54 °FClear.9 mph58%29.98 "Hg10 mi
7:30 PM54 °FClear.12 mph58%29.98 "Hg10 mi
7:00 PM57 °FClear.12 mph51%29.98 "Hg10 mi
6:30 PM57 °FClear.12 mph51%29.98 "Hg10 mi
6:00 PM57 °FClear.17 mph51%29.98 "Hg10 mi
5:30 PM59 °FClear.18 mph48%29.95 "Hg10 mi
5:00 PM59 °FSunny.18 mph48%29.95 "Hg10 mi
4:30 PM61 °FPassing clouds.13 mph45%29.95 "HgN/A
4:00 PM61 °FScattered clouds.13 mph45%29.95 "HgN/A
3:30 PM61 °FPassing clouds.14 mph48%29.98 "HgN/A
3:00 PM61 °FLight rain. Scattered clouds.15 mph48%29.98 "HgN/A
Weather by CustomWeather, © 2016

See weather overviewHow to use our weather pages